When you browse on this site, cookies collect data to enhance your experience and personalize the content and advertising you see.
Visit our Privacy Policy to learn more. By continuing to use the site, you agree to this use of cookies and data.
  • In Hungary
  • List of Countries
  • For 7 days
  • Water Temperature
  • Weather Map
  • News
  • Weather Widgets
  • user-avatar
    Login

    Hourly Weather Nevel's'ke

    Today, 12 December, Thursday

    Time Temperature Precipitation Wind Pressure Humidity
    00:00 -1°C° 0 mm 2 mps 749 mmHg 90%
    01:00 -1°C° 0 mm 2 mps 749 mmHg 90%
    02:00 -1°C° 0 mm 2 mps 749 mmHg 91%
    03:00 -1°C° 0 mm 3 mps 749 mmHg 92%
    04:00 -1°C° 0 mm 3 mps 748 mmHg 92%
    05:00 -1°C° 0 mm 3 mps 748 mmHg 92%
    06:00 -1°C° 0 mm 3 mps 748 mmHg 92%
    07:00 -1°C° 0 mm 3 mps 748 mmHg 92%
    08:00 -1°C° 0 mm 3 mps 748 mmHg 92%
    09:00 -1°C° 0 mm 3 mps 748 mmHg 93%
    10:00 -1°C° 0 mm 4 mps 748 mmHg 90%
    11:00 0°C° 0 mm 4 mps 748 mmHg 87%
    12:00 0°C° 0 mm 4 mps 748 mmHg 84%
    13:00 +1°C° 0 mm 4 mps 747 mmHg 83%
    14:00 +1°C° 0 mm 5 mps 747 mmHg 82%
    15:00 +1°C° 0 mm 5 mps 747 mmHg 82%
    16:00 +1°C° 0 mm 5 mps 747 mmHg 84%
    17:00 0°C° 0 mm 4 mps 746 mmHg 86%
    18:00 0°C° 0 mm 4 mps 746 mmHg 88%
    19:00 0°C° 0 mm 4 mps 746 mmHg 87%
    20:00 -1°C° 0 mm 5 mps 746 mmHg 86%
    21:00 -1°C° 0 mm 5 mps 746 mmHg 85%
    22:00 -1°C° 0 mm 5 mps 746 mmHg 87%
    23:00 -2°C° 0 mm 4 mps 745 mmHg 89%

    Tomorrow, 13 December, Friday

    Time Temperature Precipitation Wind Pressure Humidity
    00:00 -2°C° 0 mm 4 mps 745 mmHg 91%
    01:00 -2°C° 0 mm 5 mps 745 mmHg 89%
    02:00 -1°C° 0 mm 5 mps 745 mmHg 87%
    03:00 -2°C° 0 mm 6 mps 745 mmHg 86%
    04:00 -2°C° 0 mm 6 mps 744 mmHg 85%
    05:00 -2°C° 0 mm 6 mps 744 mmHg 84%
    06:00 -2°C° 0 mm 6 mps 743 mmHg 83%
    07:00 -2°C° 0 mm 7 mps 744 mmHg 84%
    08:00 -2°C° 0 mm 7 mps 744 mmHg 85%
    09:00 -2°C° 0 mm 7 mps 744 mmHg 86%
    10:00 -1°C° 0 mm 8 mps 744 mmHg 82%
    11:00 -1°C° 0 mm 8 mps 743 mmHg 79%
    12:00 0°C° 0 mm 8 mps 743 mmHg 75%
    13:00 0°C° 0 mm 8 mps 743 mmHg 75%
    14:00 0°C° 0 mm 8 mps 743 mmHg 75%
    15:00 0°C° 0 mm 8 mps 743 mmHg 75%
    16:00 -1°C° 0 mm 8 mps 742 mmHg 76%
    17:00 -1°C° 0 mm 8 mps 742 mmHg 77%
    18:00 -1°C° 0 mm 7 mps 742 mmHg 79%
    19:00 -1°C° 0 mm 7 mps 742 mmHg 78%
    20:00 -1°C° 0 mm 7 mps 742 mmHg 77%
    21:00 0°C° 0 mm 7 mps 742 mmHg 77%
    22:00 -1°C° 0 mm 7 mps 742 mmHg 79%
    23:00 -1°C° 0 mm 7 mps 742 mmHg 80%

    Day after tomorrow, 14 December, Saturday

    Time Temperature Precipitation Wind Pressure Humidity
    00:00 -1°C° 0 mm 6 mps 742 mmHg 82%
    01:00 -1°C° 0 mm 7 mps 742 mmHg 83%
    02:00 -1°C° 0 mm 7 mps 742 mmHg 83%
    03:00 -1°C° 0 mm 7 mps 742 mmHg 83%
    04:00 -1°C° 0.4 mm 7 mps 741 mmHg 86%
    05:00 -1°C° 0.4 mm 7 mps 741 mmHg 88%
    06:00 -1°C° 0.4 mm 7 mps 741 mmHg 90%
    07:00 0°C° 0.3 mm 7 mps 741 mmHg 91%
    08:00 0°C° 0.3 mm 7 mps 742 mmHg 92%
    09:00 0°C° 0.3 mm 7 mps 742 mmHg 93%
    10:00 +2°C° 0.2 mm 7 mps 742 mmHg 89%
    11:00 +3°C° 0.2 mm 7 mps 742 mmHg 85%
    12:00 +3°C° 0.2 mm 7 mps 742 mmHg 82%
    13:00 +4°C° 0 mm 7 mps 742 mmHg 80%
    14:00 +4°C° 0 mm 6 mps 742 mmHg 78%
    15:00 +4°C° 0 mm 6 mps 742 mmHg 76%
    16:00 +4°C° 0 mm 6 mps 743 mmHg 80%
    17:00 +3°C° 0 mm 6 mps 743 mmHg 84%
    18:00 +3°C° 0 mm 5 mps 743 mmHg 87%
    19:00 +3°C° 0.6 mm 6 mps 743 mmHg 89%
    20:00 +3°C° 0.6 mm 6 mps 743 mmHg 90%
    21:00 +4°C° 0.6 mm 6 mps 744 mmHg 91%
    22:00 +5°C° 0.9 mm 5 mps 744 mmHg 92%
    23:00 +5°C° 0.9 mm 5 mps 744 mmHg 93%

    15 December, Sunday

    Time Temperature Precipitation Wind Pressure Humidity
    00:00 +5°C° 0.9 mm 5 mps 744 mmHg 94%
    01:00 +5°C° 0.8 mm 5 mps 744 mmHg 94%
    02:00 +5°C° 0.8 mm 5 mps 744 mmHg 94%
    03:00 +5°C° 0.8 mm 5 mps 744 mmHg 94%
    04:00 +4°C° 0.2 mm 4 mps 744 mmHg 94%
    05:00 +4°C° 0.2 mm 4 mps 744 mmHg 94%
    06:00 +4°C° 0.2 mm 4 mps 744 mmHg 93%
    07:00 +4°C° 0 mm 4 mps 744 mmHg 93%
    08:00 +4°C° 0 mm 4 mps 745 mmHg 94%
    09:00 +4°C° 0 mm 4 mps 745 mmHg 94%
    10:00 +4°C° 0 mm 3 mps 745 mmHg 91%
    11:00 +5°C° 0 mm 3 mps 745 mmHg 87%
    12:00 +5°C° 0 mm 3 mps 745 mmHg 84%
    13:00 +7°C° 0 mm 3 mps 746 mmHg 83%
    14:00 +7°C° 0 mm 2 mps 746 mmHg 82%
    15:00 +7°C° 0 mm 2 mps 746 mmHg 81%
    16:00 +7°C° 0 mm 2 mps 746 mmHg 84%
    17:00 +7°C° 0 mm 2 mps 746 mmHg 87%
    18:00 +6°C° 0 mm 2 mps 747 mmHg 90%
    19:00 +6°C° 0.3 mm 2 mps 747 mmHg 92%
    20:00 +6°C° 0.3 mm 2 mps 747 mmHg 94%
    21:00 +6°C° 0.3 mm 2 mps 747 mmHg 96%
    22:00 +6°C° 0.1 mm 2 mps 748 mmHg 96%
    23:00 +7°C° 0.1 mm 1 mps 748 mmHg 96%

    16 December, Monday

    Time Temperature Precipitation Wind Pressure Humidity
    00:00 +7°C° 0.1 mm 1 mps 748 mmHg 96%
    01:00 +6°C° 0 mm 1 mps 749 mmHg 96%
    02:00 +5°C° 0 mm 2 mps 749 mmHg 95%
    03:00 +4°C° 0 mm 2 mps 749 mmHg 95%
    04:00 +4°C° 0 mm 2 mps 749 mmHg 94%
    05:00 +4°C° 0 mm 2 mps 750 mmHg 93%
    06:00 +4°C° 0 mm 1 mps 750 mmHg 92%
    07:00 +4°C° 0 mm 1 mps 750 mmHg 90%
    08:00 +4°C° 0 mm 1 mps 751 mmHg 88%
    09:00 +3°C° 0 mm 0 mps 751 mmHg 87%
    10:00 +5°C° 0 mm 1 mps 751 mmHg 81%
    11:00 +6°C° 0 mm 1 mps 752 mmHg 75%
    12:00 +7°C° 0 mm 1 mps 752 mmHg 69%
    13:00 +7°C° 0 mm 1 mps 752 mmHg 69%
    14:00 +8°C° 0 mm 1 mps 752 mmHg 69%
    15:00 +8°C° 0 mm 1 mps 752 mmHg 70%
    16:00 +7°C° 0 mm 1 mps 752 mmHg 73%
    17:00 +6°C° 0 mm 1 mps 752 mmHg 77%
    18:00 +6°C° 0 mm 1 mps 752 mmHg 80%
    19:00 +5°C° 0 mm 1 mps 753 mmHg 80%
    20:00 +5°C° 0 mm 1 mps 753 mmHg 81%
    21:00 +4°C° 0 mm 2 mps 753 mmHg 81%
    22:00 +4°C° 0 mm 2 mps 753 mmHg 81%
    23:00 +4°C° 0 mm 2 mps 753 mmHg 82%

    17 December, Tuesday

    Time Temperature Precipitation Wind Pressure Humidity
    00:00 +3°C° 0 mm 2 mps 753 mmHg 82%
    01:00 +3°C° 0 mm 2 mps 753 mmHg 83%
    02:00 +3°C° 0 mm 2 mps 753 mmHg 85%
    03:00 +3°C° 0 mm 2 mps 752 mmHg 86%
    04:00 +3°C° 0 mm 2 mps 752 mmHg 87%
    05:00 +3°C° 0 mm 2 mps 752 mmHg 87%
    06:00 +2°C° 0 mm 2 mps 752 mmHg 88%
    07:00 +3°C° 0 mm 2 mps 752 mmHg 89%
    08:00 +3°C° 0 mm 2 mps 752 mmHg 90%
    09:00 +2°C° 0 mm 3 mps 752 mmHg 91%
    10:00 +3°C° 0 mm 3 mps 752 mmHg 89%
    11:00 +4°C° 0 mm 4 mps 752 mmHg 87%
    12:00 +5°C° 0 mm 4 mps 752 mmHg 85%
    13:00 +5°C° 0 mm 4 mps 752 mmHg 83%
    14:00 +6°C° 0 mm 4 mps 751 mmHg 81%
    15:00 +7°C° 0 mm 3 mps 751 mmHg 79%
    16:00 +7°C° 0 mm 3 mps 751 mmHg 83%
    17:00 +5°C° 0 mm 3 mps 751 mmHg 86%
    18:00 +4°C° 0 mm 3 mps 751 mmHg 90%
    19:00 +4°C° 0 mm 3 mps 751 mmHg 91%
    20:00 +5°C° 0 mm 2 mps 751 mmHg 92%
    21:00 +5°C° 0 mm 2 mps 751 mmHg 93%
    22:00 +5°C° 0 mm 2 mps 751 mmHg 93%
    23:00 +5°C° 0 mm 2 mps 751 mmHg 93%
    Show more